Location: Unspecified
(55.7024°N, 37.6611°E)
Time: 19:13:54
(UTC+03:00)

Transit 4A - All Passes

Search period start: 23 June 2025 00:00
Search period end: 03 July 2025 00:00
Orbit: 867 x 974 km, 66.8° (Epoch: 22 June)

Date Brightness Start Highest point End Pass type
(mag) Time Alt. Az. Time Alt. Az. Time Alt. Az.
23 Jun - 10:24:28 10° SSE 10:29:36 27° ESE 10:34:39 10° ENE daylight
23 Jun - 12:09:05 10° SW 12:15:22 87° NW 12:21:30 10° NE daylight
23 Jun - 13:56:41 10° W 14:02:25 37° NNW 14:08:01 10° NE daylight
23 Jun - 15:45:01 10° WNW 15:50:17 29° N 15:55:27 10° ENE daylight
23 Jun - 17:32:14 10° NW 17:38:02 44° NNE 17:43:40 10° ESE daylight
23 Jun - 19:18:46 10° NW 19:24:43 68° SW 19:30:31 10° SSE daylight
23 Jun - 21:06:21 10° WNW 21:10:00 17° WSW 21:13:36 10° SW daylight
24 Jun - 10:32:35 10° S 10:38:12 36° ESE 10:43:43 10° NE daylight
24 Jun - 12:18:01 10° SW 12:24:16 71° NW 12:30:21 10° NE daylight
24 Jun - 14:05:58 10° W 14:11:32 34° NNW 14:16:58 10° NE daylight
24 Jun - 15:54:09 10° NW 15:59:28 30° N 16:04:40 10° ENE daylight
24 Jun - 17:41:07 10° NW 17:47:03 53° NE 17:52:47 10° ESE daylight
24 Jun - 19:27:40 10° NW 19:33:27 52° WSW 19:39:05 10° SSE daylight
24 Jun - 21:16:24 10° W 21:18:25 12° W 21:20:26 10° WSW daylight
25 Jun - 09:00:14 10° ESE 09:01:54 11° E 09:03:34 10° E daylight
25 Jun - 10:40:55 10° SSW 10:46:52 48° ESE 10:52:42 10° NE daylight
25 Jun - 12:27:03 10° WSW 12:33:11 58° NW 12:39:12 10° NE daylight
25 Jun - 14:15:16 10° WNW 14:20:41 31° NNW 14:25:58 10° NE daylight
25 Jun - 16:03:13 10° NW 16:08:38 32° NNE 16:13:54 10° ENE daylight
25 Jun - 17:50:01 10° NW 17:56:01 64° NE 18:01:50 10° ESE daylight
25 Jun - 19:36:38 10° NW 19:42:07 39° WSW 19:47:28 10° S daylight
26 Jun - 09:06:44 10° SE 09:10:20 16° ESE 09:13:52 10° ENE daylight
26 Jun - 10:49:26 10° SSW 10:55:35 62° SE 11:01:36 10° NE daylight
26 Jun - 12:36:12 10° WSW 12:42:11 48° NNW 12:48:03 10° NE daylight
26 Jun - 14:24:32 10° WNW 14:29:51 29° N 14:35:03 10° NE daylight
26 Jun - 16:12:14 10° NW 16:17:46 35° NNE 16:23:09 10° E daylight
26 Jun - 17:58:52 10° NW 18:04:54 80° NE 18:10:47 10° SE daylight
26 Jun - 19:45:42 10° NW 19:50:44 29° WSW 19:55:38 10° S daylight
27 Jun - 09:14:13 10° SSE 09:18:49 22° ESE 09:23:21 10° ENE daylight
27 Jun - 10:58:08 10° SW 11:04:22 80° SE 11:10:29 10° NE daylight
27 Jun - 12:45:24 10° W 12:51:14 41° NNW 12:56:56 10° NE daylight
27 Jun - 14:33:46 10° WNW 14:39:02 29° N 14:44:10 10° ENE daylight
27 Jun - 16:21:12 10° NW 16:26:52 39° NNE 16:32:23 10° E daylight
27 Jun - 18:07:44 10° NW 18:13:45 82° SW 18:19:35 10° SE daylight
27 Jun - 19:54:55 10° WNW 19:59:15 21° WSW 20:03:32 10° SSW daylight
28 Jun - 09:22:07 10° S 09:27:22 29° ESE 09:32:33 10° NE daylight
28 Jun - 11:06:57 10° SW 11:13:13 83° NW 11:19:20 10° NE daylight
28 Jun - 12:54:39 10° W 13:00:19 36° NNW 13:05:52 10° NE daylight
28 Jun - 14:42:57 10° NW 14:48:13 29° N 14:53:21 10° ENE daylight
28 Jun - 16:30:06 10° NW 16:35:55 46° NNE 16:41:33 10° ESE daylight
28 Jun - 18:16:37 10° NW 18:22:32 64° SW 18:28:17 10° SSE daylight
28 Jun - 20:04:25 10° WNW 20:07:44 15° WSW 20:11:00 10° SW daylight
29 Jun - 09:30:17 10° S 09:36:00 39° ESE 09:41:36 10° NE daylight
29 Jun - 11:15:55 10° SW 11:22:07 67° NW 11:28:10 10° NE daylight
29 Jun - 13:03:56 10° W 13:09:27 33° NNW 13:14:50 10° NE daylight
29 Jun - 14:52:05 10° NW 14:57:23 30° N 15:02:35 10° ENE daylight
29 Jun - 16:38:59 10° NW 16:44:55 55° NE 16:50:40 10° ESE daylight
29 Jun - 18:25:33 10° NW 18:31:15 48° WSW 18:36:48 10° SSE daylight
29 Jun - 20:14:58 10° W 20:16:08 11° W 20:17:16 10° WSW daylight
30 Jun - 07:57:18 10° ESE 07:59:38 12° E 08:01:57 10° ENE daylight
30 Jun - 09:38:40 10° SSW 09:44:40 51° ESE 09:50:33 10° NE daylight
30 Jun - 11:24:58 10° WSW 11:31:04 55° NW 11:37:01 10° NE daylight
30 Jun - 13:13:14 10° WNW 13:18:36 30° N 13:23:51 10° NE daylight
30 Jun - 15:01:08 10° NW 15:06:33 32° NNE 15:11:50 10° E daylight
30 Jun - 16:47:51 10° NW 16:53:51 68° NE 16:59:42 10° SE daylight
30 Jun - 18:34:32 10° NW 18:39:54 36° WSW 18:45:08 10° S daylight
01 Jul - 08:04:12 10° SE 08:08:04 17° ESE 08:11:54 10° ENE daylight
01 Jul - 09:47:15 10° SSW 09:53:24 66° SE 09:59:26 10° NE daylight
01 Jul - 11:34:08 10° WSW 11:40:05 46° NNW 11:45:53 10° NE daylight
01 Jul - 13:22:30 10° WNW 13:27:46 29° N 13:32:56 10° NE daylight
01 Jul - 15:10:07 10° NW 15:15:40 36° NNE 15:21:04 10° E daylight
01 Jul - 16:56:43 10° NW 17:02:45 84° NE 17:08:36 10° SE daylight
01 Jul - 18:43:37 10° WNW 18:48:29 27° WSW 18:53:15 10° SSW daylight
02 Jul - 08:11:48 10° SSE 08:16:34 24° ESE 08:21:16 10° ENE daylight
02 Jul - 09:55:58 10° SW 10:02:13 84° SE 10:08:18 10° NE daylight
02 Jul - 11:43:21 10° W 11:49:08 40° NNW 11:54:47 10° NE daylight
02 Jul - 13:31:43 10° WNW 13:36:57 29° N 13:42:04 10° ENE daylight
02 Jul - 15:19:04 10° NW 15:24:45 41° NNE 15:30:17 10° E daylight
02 Jul - 17:05:36 10° NW 17:11:34 77° SW 17:17:23 10° SSE daylight
02 Jul - 18:52:53 10° WNW 18:57:00 20° WSW 19:01:03 10° SSW daylight
